Location: Washington
(38.8950°N, 77.0370°W)
Time: 14:16:21
(UTC-04:00)

ISS - All Passes

Search period start: 22 June 2017 00:00
Search period end: 02 July 2017 00:00
Orbit: 401 x 408 km, 51.6° (Epoch: 23 June)

Date Brightness Start Highest point End Pass type
(mag) Time Alt. Az. Time Alt. Az. Time Alt. Az.
22 Jun - 09:44:15 10° SSW 09:47:12 32° SE 09:50:11 10° ENE daylight
22 Jun - 11:20:49 10° W 11:23:42 28° NNW 11:26:36 10° NNE daylight
22 Jun - 13:00:29 10° NNW 13:01:04 10° N 13:01:38 10° N daylight
22 Jun - 14:37:54 10° N 14:38:47 11° N 14:39:41 10° NNE daylight
22 Jun - 16:13:05 10° NW 16:16:06 31° NNE 16:19:05 10° E daylight
22 Jun - 17:49:39 10° WNW 17:52:31 27° SW 17:55:22 10° SSE daylight
23 Jun - 08:53:03 10° S 08:55:12 16° SE 08:57:22 10° E daylight
23 Jun - 10:28:14 10° WSW 10:31:25 47° NW 10:34:37 10° NE daylight
23 Jun - 12:07:00 10° NW 12:08:33 13° NNW 12:10:05 10° NNE daylight
23 Jun - 15:21:11 10° NNW 15:23:44 20° NNE 15:26:19 10° ENE daylight
23 Jun - 16:57:12 10° WNW 17:00:27 56° SW 17:03:40 10° SE daylight
24 Jun - 09:35:56 10° SW 09:39:12 88° SE 09:42:30 10° NE daylight
24 Jun - 11:13:52 10° WNW 11:16:04 17° NNW 11:18:17 10° NNE daylight
24 Jun - 14:29:19 10° NNW 14:31:19 15° NNE 14:33:18 10° ENE daylight
24 Jun - 16:04:59 10° NW 16:08:17 71° NE 16:11:34 10° ESE daylight
24 Jun - 17:43:22 10° WSW 17:44:20 11° SW 17:45:17 10° SW daylight
25 Jun - 08:43:58 10° SSW 08:47:04 41° SE 08:50:11 10° ENE daylight
25 Jun - 10:20:56 10° W 10:23:39 24° NNW 10:26:24 10° NNE daylight
25 Jun - 13:37:35 10° N 13:38:48 12° NNE 13:40:01 10° NE daylight
25 Jun - 15:12:54 10° NW 15:16:01 38° NNE 15:19:07 10° ESE daylight
25 Jun - 16:49:45 10° W 16:52:20 21° SW 16:54:55 10° S daylight
26 Jun - 07:52:28 10° S 07:55:00 21° SE 07:57:32 10° E daylight
26 Jun - 09:28:13 10° WSW 09:31:18 38° NNW 09:34:25 10° NE daylight
26 Jun - 11:07:17 10° NW 11:08:31 12° NNW 11:09:44 10° N daylight
26 Jun - 14:20:55 10° NNW 14:23:40 24° NNE 14:26:24 10° E daylight
26 Jun - 15:57:07 10° WNW 16:00:16 43° SW 16:03:24 10° SSE daylight
27 Jun - 07:02:17 10° SE 07:02:59 11° SE 07:03:43 10° ESE daylight
27 Jun - 08:35:46 10° WSW 08:39:01 72° NW 08:42:19 10° NE daylight
27 Jun - 10:14:00 10° WNW 10:15:59 15° NNW 10:17:58 10° NNE daylight
27 Jun - 13:29:00 10° NNW 13:31:13 16° NNE 13:33:26 10° ENE daylight
27 Jun - 15:04:47 10° NW 15:08:05 90° SW 15:11:22 10° SE daylight
28 Jun - 07:43:37 10° SW 07:46:48 54° SE 07:50:02 10° ENE daylight
28 Jun - 09:20:56 10° WNW 09:23:30 21° NNW 09:26:04 10° NNE daylight
28 Jun - 12:37:11 10° NNW 12:38:41 12° NNE 12:40:12 10° NE daylight
28 Jun - 14:12:37 10° NW 14:15:49 46° NE 14:19:00 10° ESE daylight
28 Jun - 15:49:48 10° W 15:52:02 17° SW 15:54:15 10° S daylight
29 Jun - 06:51:53 10° SSW 06:54:41 26° SE 06:57:29 10° ENE daylight
29 Jun - 08:28:06 10° W 08:31:05 31° NNW 08:34:04 10° NE daylight
29 Jun - 10:07:30 10° NNW 10:08:22 11° NNW 10:09:15 10° N daylight
29 Jun - 11:45:36 10° N 11:46:06 10° N 11:46:35 10° NNE daylight
29 Jun - 13:20:34 10° NNW 13:23:27 27° NNE 13:26:19 10° E daylight
29 Jun - 14:56:57 10° WNW 14:59:57 33° SW 15:02:56 10° SSE daylight
30 Jun - 06:00:54 10° SSE 06:02:37 14° SE 06:04:19 10° E daylight
30 Jun - 07:35:31 10° WSW 07:38:44 57° NW 07:41:58 10° NE daylight
30 Jun - 09:14:03 10° NW 09:15:47 13° NNW 09:17:31 10° NNE daylight
30 Jun - 12:28:35 10° NNW 12:31:00 18° NNE 12:33:24 10° ENE daylight
30 Jun - 14:04:29 10° NW 14:07:46 70° SW 14:11:01 10° SE daylight
01 Jul - 06:43:13 10° SW 06:46:27 72° SE 06:49:44 10° NE daylight
01 Jul - 08:20:53 10° WNW 08:23:14 18° NNW 08:25:36 10° NNE daylight
01 Jul - 11:36:41 10° NNW 11:38:27 14° NNE 11:40:13 10° NE daylight
01 Jul - 13:12:14 10° NW 13:15:30 58° NE 13:18:44 10° ESE daylight
01 Jul - 14:49:55 10° W 14:51:36 13° SW 14:53:18 10° SSW daylight
